Theta_e
300 300 300 299 299 300 301 302 302 303 303 302 302 303 305 307 309 310 310 310 310 310 310 310 312 314 316 316 315 314 312 311 311 309 311 311 311 313 312 311 312 313 312 312 311
304 301 300 300 300 300 300 301 302 302 303 303 303 303 304 307 308 310 310 309 309 309 311 311 313 314 314 313 312 310 310 311 308 307 311 311 311 312 312 311 311 312 312 312 312
320 318 307 302 300 300 300 300 300 301 302 303 303 303 305 307 309 310 310 309 309 309 312 312 313 313 313 312 311 308 309 307 311 313 312 311 311 312 311 311 312 312 312 312 312
320 321 321 317 305 301 300 300 300 300 301 302 304 304 305 307 312 313 311 309 309 309 310 313 313 313 311 312 312 310 310 311 312 313 313 311 312 311 312 313 313 312 312 312 312
319 320 321 321 321 308 301 300 300 300 300 301 303 305 306 308 308 313 310 309 309 309 310 313 313 313 312 311 311 311 310 312 312 313 312 312 311 310 310 312 311 312 312 312 312
316 319 320 321 322 321 310 302 300 300 300 300 301 304 306 308 311 312 311 310 309 310 310 312 312 313 312 311 310 311 311 311 312 312 312 311 310 310 311 310 311 311 311 312 312
316 317 320 321 322 322 321 310 302 300 300 300 300 302 305 309 312 313 311 310 309 310 310 311 313 313 312 311 313 312 311 309 310 311 311 310 309 309 311 311 311 311 311 311 311
317 317 317 321 321 321 322 321 312 302 301 300 300 301 304 308 309 312 310 309 309 310 310 312 313 313 313 312 309 311 308 310 310 310 311 310 313 310 309 309 310 311 311 311 311
317 316 316 316 320 321 321 322 321 316 301 300 300 301 303 308 311 311 310 309 310 311 311 313 314 312 311 308 308 306 312 309 309 310 310 310 312 310 309 309 309 310 310 311 311
316 316 316 317 317 320 321 321 321 317 302 300 301 303 303 307 310 311 309 310 310 311 313 312 310 307 307 308 317 312 312 311 310 310 310 310 311 310 310 310 310 311 310 311 311
314 315 317 318 318 318 320 321 317 306 303 303 303 302 306 307 310 309 309 311 310 310 308 309 307 308 308 307 309 311 312 312 309 308 309 309 309 308 308 308 307 308 309 310 311
311 314 316 317 318 318 319 319 320 311 305 306 303 305 307 309 309 308 308 310 310 307 308 309 308 308 307 307 310 310 310 309 308 307 308 306 308 308 305 304 305 306 307 308 309
308 310 313 316 317 316 319 319 319 317 301 304 302 304 306 308 309 309 308 309 306 309 309 309 311 307 309 309 310 310 309 307 310 306 305 304 309 308 306 307 309 308 307 307 307
304 308 310 313 315 316 316 319 319 318 315 314 304 305 307 308 308 309 309 309 308 307 308 309 308 309 309 310 309 312 307 308 308 308 309 305 313 308 306 304 306 308 307 307 308
299 304 308 309 310 313 316 317 316 314 325 308 303 306 308 307 307 308 308 309 308 307 308 309 308 309 310 310 308 311 307 307 308 308 308 307 307 310 304 307 308 307 307 307 308
295 297 304 307 308 312 312 315 312 316 324 308 305 306 305 307 307 308 309 308 307 307 306 306 307 307 308 305 306 305 307 306 305 307 309 305 307 313 306 306 306 307 307 308 308
294 292 296 304 307 310 311 306 311 318 311 308 305 305 305 307 307 308 308 308 307 306 308 308 307 306 306 307 306 306 307 311 311 309 314 307 308 311 308 305 305 305 308 308 307
293 290 292 297 306 308 307 307 314 313 312 305 305 304 306 306 307 307 308 308 306 306 307 307 306 306 305 307 307 305 307 312 313 311 309 307 310 312 306 305 306 307 308 309 307
290 289 291 294 303 307 307 309 314 312 310 306 305 306 305 306 306 307 306 307 306 305 310 307 308 305 305 305 306 306 307 305 306 298 306 308 306 306 303 303 306 305 306 308 308
289 291 293 301 302 306 305 310 310 310 306 306 315 309 307 305 307 306 305 305 306 305 305 307 310 306 305 305 305 305 303 307 304 309 309 309 307 311 308 306 302 304 304 307 308
289 293 298 301 303 303 305 307 306 309 309 308 312 310 308 306 306 306 307 306 305 304 305 305 308 307 306 306 306 305 305 305 304 305 310 309 313 304 306 306 304 302 306 307 308
290 286 298 301 302 300 304 304 307 309 310 309 309 310 309 307 306 307 307 306 306 305 306 306 306 305 306 304 303 304 304 304 308 307 304 306 309 306 303 304 304 304 307 307 308
289 290 294 300 302 302 301 303 305 309 310 310 311 309 308 307 310 307 306 305 305 305 308 305 302 300 305 304 302 305 303 304 303 304 305 309 310 304 303 303 304 305 306 308 307
290 288 294 297 297 299 302 304 306 306 308 310 312 309 307 309 308 308 306 305 305 305 306 307 305 308 311 312 304 305 304 304 305 304 307 306 309 309 306 305 304 305 306 306 307
290 284 291 287 289 293 296 298 302 301 301 304 310 310 309 310 309 309 307 305 305 306 306 306 304 304 306 305 305 306 305 304 306 307 309 310 306 310 310 306 306 307 307 307 307
290 290 291 290 293 289 296 295 296 296 300 301 297 297 304 311 310 310 308 308 309 305 305 305 307 302 303 304 304 303 304 304 305 306 304 306 307 307 306 307 304 306 307 307 307
290 290 290 287 288 290 291 293 294 295 296 295 294 296 305 300 297 301 304 309 310 307 306 306 304 308 306 303 301 310 307 303 303 302 306 307 309 306 307 303 304 307 308 308 309
Wind_Speed
11 11 9 7 7 8 9 8 8 8 8 7 6 5 5 5 5 5 4 4 5 3 4 5 7 8 7 5 4 4 3 3 5 7 3 4 3 5 4 4 7 8 8 6 5
11 11 12 10 8 8 8 9 8 7 7 7 6 5 5 5 5 7 6 6 5 4 7 8 8 9 5 4 3 3 3 7 3 5 4 3 5 3 4 6 8 11 14 12 10
13 13 12 13 11 8 8 8 8 8 7 7 7 6 5 4 4 5 9 6 5 6 8 10 8 7 3 3 4 4 5 3 4 5 4 3 3 6 4 6 16 11 8 14 13
11 12 12 12 13 11 9 9 9 9 8 8 8 7 5 4 3 3 6 6 6 7 9 9 8 5 3 4 4 2 4 4 2 5 3 3 3 5 15 10 7 8 9 11 14
13 14 12 13 12 13 11 10 9 9 9 8 8 7 5 4 5 5 5 6 7 8 9 9 9 6 3 4 4 4 1 5 6 7 8 7 11 9 18 21 16 14 13 12 13
15 13 14 13 13 13 12 11 10 9 9 9 8 7 5 4 5 7 6 6 8 8 8 9 5 6 4 4 4 3 5 7 6 6 6 4 4 1 5 2 11 21 17 15 15
13 15 12 15 14 14 13 12 10 9 9 9 9 7 9 10 7 7 7 7 7 7 8 8 7 7 6 2 2 2 5 4 3 4 3 3 6 9 17 13 10 13 18 18 16
12 14 17 15 18 15 13 12 12 10 9 9 9 7 7 8 12 9 8 7 7 7 7 9 8 5 2 4 3 1 3 4 1 3 2 1 8 4 5 8 13 14 17 19 18
16 14 17 18 17 15 14 13 12 12 9 8 8 7 6 6 11 11 9 7 6 7 8 9 7 4 4 3 4 6 3 2 6 3 1 1 7 4 4 6 13 16 19 21 19
18 17 16 17 21 13 14 14 14 11 9 8 10 4 9 5 7 12 10 9 5 11 8 5 3 3 3 3 4 3 2 3 4 2 1 4 19 18 22 20 25 24 21 22 21
18 16 19 16 16 16 14 11 7 4 9 9 4 4 3 8 8 10 12 11 9 5 5 2 3 6 8 5 4 5 2 4 4 1 3 7 14 21 20 21 23 27 31 29 24
17 15 15 18 18 20 17 9 7 5 8 13 18 14 8 10 6 12 15 10 7 5 4 3 6 4 6 4 3 2 0 5 4 0 1 6 22 21 7 6 12 19 23 27 26
18 17 13 17 19 21 18 16 10 7 4 6 12 13 11 16 7 18 20 10 4 6 7 6 1 4 5 4 4 2 4 3 4 6 1 7 9 5 1 4 5 9 11 12 21
22 19 15 11 8 22 25 14 11 8 2 5 7 7 13 11 4 13 19 7 3 9 8 4 2 4 3 3 5 2 2 3 1 4 3 4 6 8 3 7 3 4 5 8 16
19 22 16 10 10 6 18 13 12 7 4 4 4 5 12 8 12 5 14 5 7 6 5 4 7 4 3 4 6 3 2 3 2 2 3 2 2 8 4 4 2 4 5 10 15
18 19 21 16 16 14 10 15 16 2 9 2 2 3 5 2 3 6 6 4 5 4 2 2 0 4 4 3 2 7 4 4 3 2 2 2 3 6 3 4 2 2 9 14 17
18 17 18 18 12 9 14 19 2 5 1 4 4 4 1 4 3 4 6 6 7 5 5 1 2 2 4 5 3 3 4 3 4 2 5 2 1 10 5 6 4 7 15 16 17
23 19 15 17 17 14 20 2 7 5 5 3 4 5 6 6 3 5 6 6 5 3 3 7 4 8 5 5 6 5 6 5 6 2 4 3 6 6 5 2 9 5 11 17 19
23 17 12 11 15 14 18 5 6 5 6 9 4 4 3 4 5 3 6 5 8 11 7 6 3 1 1 2 3 6 5 3 6 2 2 4 7 9 4 5 3 8 11 20 21
22 16 5 5 10 18 5 6 4 3 4 4 8 7 9 6 6 7 9 6 7 13 3 7 3 1 1 2 2 3 4 3 2 3 4 4 5 5 3 6 8 7 15 18 20
15 8 1 6 16 9 3 5 5 11 5 5 6 6 5 7 7 6 5 4 6 7 6 6 4 1 3 6 8 3 3 2 2 4 5 1 5 6 4 3 8 9 16 19 22
6 2 2 7 5 3 2 4 2 4 3 3 2 2 8 10 8 5 9 5 8 13 9 5 5 4 6 1 2 3 7 8 4 5 2 2 6 1 4 3 3 9 16 17 20
9 5 2 5 3 3 2 3 2 2 4 6 4 2 2 8 4 7 6 0 11 8 16 9 2 3 5 3 2 5 6 4 3 2 6 6 5 1 3 4 5 6 10 17 20
3 3 5 3 5 4 3 1 3 7 6 5 1 4 1 3 2 6 5 1 2 3 5 7 4 7 9 5 6 7 8 10 6 3 4 6 6 5 5 5 4 6 9 14 20
4 1 4 3 3 3 3 6 3 5 9 11 3 6 5 3 2 4 2 0 2 2 2 3 6 5 3 2 3 5 7 16 18 17 8 4 13 15 13 7 10 10 7 9 16
3 3 3 5 7 5 7 8 9 5 4 4 6 16 7 3 2 5 8 5 4 2 4 1 1 3 2 3 1 4 8 12 16 13 10 15 22 11 20 12 5 10 12 14 18
5 2 1 6 4 3 2 2 5 7 5 8 7 8 6 8 18 20 20 9 6 8 9 4 4 3 4 2 3 9 15 12 7 7 15 15 21 5 2 6 13 21 19 18 21
Wind_Direction
333 331 332 337 338 340 342 344 343 347 346 339 323 307 294 264 248 237 232 233 242 220 192 183 168 163 164 165 151 151 68 227 234 170 232 188 173 202 229 206 201 212 225 244 239
349 336 329 326 326 329 328 331 338 336 329 332 324 311 301 281 255 245 227 227 226 206 192 171 166 165 167 163 162 116 142 225 211 188 213 207 192 216 221 210 230 230 234 239 239
352 350 341 328 324 317 314 313 313 320 329 334 323 314 302 277 269 242 213 217 219 205 195 181 170 173 151 160 191 159 211 211 237 225 218 214 239 222 211 242 232 225 250 234 233
326 334 337 337 328 318 312 311 311 314 318 322 324 316 306 249 200 187 200 216 217 203 193 183 177 170 141 188 179 211 239 232 248 218 204 215 244 247 223 240 256 259 248 235 232
313 316 321 327 330 324 316 309 306 305 309 312 315 310 296 254 250 218 211 218 216 201 192 182 178 172 185 182 160 202 254 238 246 243 247 253 246 247 256 256 254 253 250 245 235
309 301 315 314 319 325 319 313 306 304 305 304 303 300 278 249 241 218 221 219 215 202 191 188 197 201 171 183 174 185 247 258 268 246 247 240 253 307 248 228 239 238 241 236 237
298 300 302 313 308 315 319 316 308 301 300 298 292 287 273 260 240 225 226 216 211 206 198 193 189 186 163 140 215 243 301 308 234 237 242 281 263 233 258 263 261 236 232 234 238
283 285 297 302 305 300 307 315 313 304 289 285 283 280 255 245 232 218 210 202 201 192 184 179 179 159 155 142 35 34 55 336 205 198 281 259 272 281 307 253 249 239 232 231 234
268 271 283 294 293 292 294 305 309 299 281 263 268 256 255 232 217 213 209 199 175 158 157 159 162 146 135 105 9 11 257 271 320 219 330 102 277 273 279 242 251 242 236 234 235
274 267 267 275 286 285 291 302 304 283 259 248 231 262 237 214 203 202 195 181 154 153 140 170 143 86 48 105 226 232 299 263 253 319 5 259 262 268 261 260 255 254 248 240 238
280 276 267 268 271 286 287 301 294 268 225 219 194 175 180 187 182 187 183 174 158 176 167 160 126 203 209 189 146 127 169 264 266 338 288 254 277 280 277 245 249 249 250 242 239
275 280 272 259 264 274 278 266 262 285 298 249 238 229 214 191 167 186 179 176 178 182 134 66 223 202 114 145 158 141 212 273 278 321 252 321 293 283 282 246 249 255 254 246 236
281 277 280 271 252 268 270 256 265 276 253 270 229 224 204 203 215 189 183 179 166 148 188 167 177 135 141 136 139 186 179 231 247 319 70 321 290 323 276 274 259 271 266 238 220
283 276 278 298 229 251 265 267 258 242 260 221 213 208 186 174 210 185 186 179 152 189 165 222 152 153 146 169 137 248 189 161 20 31 274 15 284 305 316 304 256 266 233 198 186
292 279 268 248 285 241 239 248 195 160 251 54 153 161 163 176 136 169 178 174 165 172 148 215 156 156 164 206 167 196 126 120 99 88 357 335 72 270 344 314 242 216 186 171 171
312 290 269 264 272 255 243 182 159 145 228 146 102 153 128 137 115 117 158 142 124 109 33 99 148 168 172 75 88 148 94 58 61 81 345 219 141 282 229 208 203 189 181 164 168
323 304 276 256 251 262 228 155 115 215 115 189 164 159 116 148 126 164 167 169 161 129 191 46 218 151 139 88 37 100 88 334 340 11 227 119 50 249 246 217 195 186 193 183 181
322 311 277 257 241 252 176 109 211 200 200 122 119 124 175 159 194 164 143 190 223 121 129 164 271 167 188 198 173 177 166 166 226 226 286 54 234 252 206 272 216 200 201 194 193
324 316 290 256 225 219 185 221 195 196 160 145 110 129 224 201 150 153 201 209 194 183 185 156 256 73 74 146 144 180 193 163 108 62 33 226 275 285 231 256 184 195 200 202 200
333 327 287 198 194 204 203 228 245 242 129 180 180 175 179 191 163 188 185 205 198 185 168 197 108 327 151 111 36 161 166 94 358 187 251 274 277 245 268 239 207 207 213 208 204
336 324 78 187 185 191 215 215 217 255 244 184 219 168 161 171 188 197 205 260 211 183 153 143 112 302 130 212 176 136 204 72 125 171 180 261 261 213 248 263 207 212 209 204 203
359 346 174 185 161 216 216 182 249 262 154 260 278 249 169 161 178 219 210 245 187 144 178 184 114 165 200 276 196 188 191 178 156 209 241 142 274 215 249 318 212 212 213 209 209
337 289 295 221 227 198 235 256 266 273 197 192 233 303 24 166 196 197 189 307 186 173 162 180 204 79 356 348 355 213 198 188 119 93 199 152 253 224 228 257 240 229 221 215 211
18 354 325 349 31 2 332 268 239 233 246 262 257 113 73 266 289 162 201 156 168 221 265 154 160 174 187 189 136 191 195 185 164 150 187 222 258 238 205 206 175 232 238 225 217
42 316 329 332 348 353 276 356 346 7 352 5 220 226 183 243 266 191 176 18 67 206 259 205 201 171 227 141 167 203 180 187 203 211 196 234 218 249 265 232 223 202 207 209 216
59 10 10 346 325 8 16 4 17 360 335 57 17 333 297 209 305 205 182 164 179 99 184 266 266 108 284 162 260 286 228 198 213 227 270 268 277 248 257 248 187 205 212 233 234
62 72 51 348 344 49 2 331 356 359 40 68 341 332 330 7 316 294 281 192 170 169 188 168 154 120 261 111 107 283 213 192 190 195 206 222 239 203 248 206 231 239 257 258 262